Regional Weather Roundup
Issued by NWS

Home | Current Version | Previous Version | Text Only | Print | Product List | Glossary Off
Versions: 1 2 3 4 5 6 7 8 9 10 11 12 13 14 15 16 17 18 19 20 21 22 23 24 25 26 27 28 29 30 31 32 33 34 35 36 37 38 39 40 41 42 43 44 45 46 47 48 49 50

000
ASUS43 KIND 281009
RWRIN

WEATHER ROUNDUP FOR INDIANA
NATIONAL WEATHER SERVICE INDIANAPOLIS IN
600 AM EDT SUN AUG 28 2016

NOTE: "FAIR" INDICATES FEW OR NO CLOUDS BELOW 12,000 FEET WITH NO
SIGNIFICANT WEATHER AND/OR OBSTRUCTIONS TO VISIBILITY.

* - STATION DOES NOT REPORT WEATHER SUCH AS PRECIPITATION OR FOG.

+ - STATION NOT QUALITY CONTROLLED BY THE NATIONAL WEATHER SERVICE.
    USE DATA WITH CAUTION...ESPECIALLY DEWPOINT AND RELATIVE
    HUMIDITY OBSERVATIONS.

INZ001>003-010>013-019-020-281100-
NORTHWEST INDIANA

CITY           SKY/WX    TMP DP  RH WIND       PRES   REMARKS
GARY /AIRPORT/ MOCLDY    75  73  94 CALM      30.14R
KNOX *+        CLOUDY    70  59  68 CALM      30.15R
LA PORTE +     CLOUDY   N/A N/A N/A CALM      30.16R HAZE
MICHIGAN CITY+ PTCLDY    72  72 100 MISG      30.15R
MONTICELLO +   CLOUDY    69  66  88 CALM      30.14R FOG
RENSSELAER +   CLOUDY    70  70 100 CALM      30.14S
VALPARAISO     MOCLDY    72  70  93 S3        30.16R

$$

LMZ046-743>745-281100-
SOUTHERN LAKE MICHIGAN

STATION/POSITION TIME  TEMP    WIND        PRES    WAVE
                       AIR SEA DIR/SP/G            HT
                 (UTC) (F)     (DEG/KT/KT) (MB)    (FT)
BURNS HARBOR     0903   74     190/  6/  9 1020.7R
MICHIGAN CITY    0900   75     170/  7/  7   N/A
5NW MICH CITY    1000   75 76  220/  4/  6   N/A     0

$$

INZ004-005-014>016-021>024-281100-
NORTH CENTRAL INDIANA

CITY           SKY/WX    TMP DP  RH WIND       PRES   REMARKS
GOSHEN         PTCLDY    73  69  87 SW3       30.15S
LOGANSPORT +   MOCLDY    68  68 100 CALM      30.16R FOG
PERU/GRISSOM   CLEAR     71  71 100 NW1       30.14R
ROCHESTER +    CLEAR     73  73 100 SE5       30.15S
SOUTH BEND     MOCLDY    73  72  96 SW3       30.15S
WARSAW +       CLEAR     70  70 100 CALM      30.16R FOG

$$

INZ006>009-017-018-025>027-281100-
NORTHEAST INDIANA

CITY           SKY/WX    TMP DP  RH WIND       PRES   REMARKS
ANGOLA *+      PTCLDY    68  61  77 CALM      30.16S
AUBURN +       PTCLDY    70  68  94 CALM      30.17S FOG
FORT WAYNE     PTCLDY    68  66  93 CALM      30.16S
HUNTINGTON +   PTCLDY    67  66  96 CALM      30.16R FOG

$$

INZ028-029-035-036-043>045-051>053-281100-
WEST CENTRAL INDIANA

CITY           SKY/WX    TMP DP  RH WIND       PRES   REMARKS
CRAWFORDSVL +  CLOUDY    65  65 100 CALM      30.15R FOG
GREENCASTLE +  FOG       70  70 100 CALM      30.15R VSB 3/4
LAFAYETTE      CLEAR     69  69 100 CALM      30.14R FOG
TERRE HAUTE    FOG       69  67  93 CALM      30.13S VSB 3/4

$$

INZ030>032-037>040-046>048-054>057-064-065-281100-
CENTRAL INDIANA

CITY           SKY/WX    TMP DP  RH WIND       PRES   REMARKS
INDIANAPOLIS   PTCLDY    73  71  93 E5        30.14S
-EAGLE CREEK   CLEAR     73  71  93 CALM      30.14S
KOKOMO *+      PTCLDY    70  68  94 CALM      30.15R
MARION +       PTCLDY    67  67 100 CALM      30.17R FOG
MT COMFORT *+  PTCLDY    66  66 100 SE6       30.17R
SHELBYVILLE    CLOUDY    71  68  90 CALM      30.15R
ZIONSVILLE +   FOG       67  67 100 CALM      30.16S VSB 1/2

$$

INZ033-034-041-042-049-050-058-059-281100-
EAST CENTRAL INDIANA

CITY           SKY/WX    TMP DP  RH WIND       PRES   REMARKS
MUNCIE         CLOUDY    71  69  93 CALM      30.17R

$$

INZ060-061-067>069-081>083-085>088-281100-
SOUTHWEST INDIANA

CITY           SKY/WX    TMP DP  RH WIND       PRES   REMARKS
EVANSVILLE     CLEAR     75  73  93 CALM      30.12R
HUNTINGBURG *+ CLEAR     73  70  88 CALM      30.13R
WASHINGTON +   CLOUDY    70  70 100 MISG      30.13R FOG

$$

INZ062-063-066-070>080-084-089>092-281100-
SOUTH CENTRAL AND SOUTHEAST INDIANA

CITY           SKY/WX    TMP DP  RH WIND       PRES   REMARKS
BLOOMINGTON    PTCLDY    71  69  93 CALM      30.16R
MADISON *+       N/A     72  70  94 CALM      30.17S

$$




USA.gov is the U.S. government's official web portal to all federal, state and local government web resources and services.